Location: ?????????
(44.2517°N, 135.2292°E)
Time: 03:04:19
(UTC+00:00)

CZ-2C R/B - Pass Details

Date: 19 May 2025
Orbit: 662 x 776 km, 98.4° (Epoch: 14 June)

Event Time Altitude Azimuth Distance (km) Brightness Sun altitude
Rises 18:26:02 0° 20° (NNE) 3,062 6.8 -9.8°
Reaches altitude 10° 18:28:24 10° 27° (NNE) 2,127 6.0 -9.5°
Maximum altitude 18:32:49 43° 99° (E) 943 3.4 -8.9°
Drops below altitude 10° 18:37:07 10° 171° (S) 2,079 4.5 -8.3°
Sets 18:39:25 0° 178° (S) 2,984 5.2 -8.0°
